COSMOS 2192

Satellite information

Favourite Embed

Satellite Type and Status

PAYLOADIN ORBIT

Key statistics

Satellite COSMOS 2192 at a glance.

Uptime

12203

Days in orbit

Revolutions

≈ 12.5

Per day

Orbit

LEO

Low Earth Orbit

Inclination

74.0

Latest

Satellite identification and parameters

Extended collection of information and parameters for COSMOS 2192.

Object identification

Identified? True

Debris? False

Object name: COSMOS 2192

International designator: 1992-030F

Object number (NORAD): 21981

Object ID (CCSDS): 21981

Country: COMMONWEALTH OF INDEPENDENT STATES (CIS)

Current information (Y/N): Y

RCS size: MEDIUM

Orbital parameters

Period: 115.506 minutes

Inclination: 74.0039 deg

SMA: 7856.508 km

Apoapsis: 1485.466 km

Periapsis: 1471.279 km

RAAN: 333.1241 deg

Eccentricy: 0.00090291

Argument of periapsis: 349.7408 deg

Mean anomaly: 161.8826 deg

Mean motion: 12.46689925 rev/day

Mean motion (dot): -0.00000005 rev/day2

B* drag term: 0.000077625384 1/REarth

Two-line elements (TLE)

Creation date: Oct. 31, 2025, 3 a.m.

Reference frame: TEME

Reference center: EARTH

Epoch: Oct. 30, 2025, 12:11 p.m. UTC

TLE line 0: 0 COSMOS 2192

TLE line 1: 1 21981U 92030F 25303.50811083 -.00000005 00000-0 77625-4 0 9991

TLE line 2: 2 21981 74.0039 333.1241 0009029 349.7408 161.8826 12.46689925520481

Live tracking on map

Real-time ground track for satellite COSMOS 2192.

In-orbit conjunctions

A list of the most updated potential collisions computed for object COSMOS 2192.

Target Orbit TCA Probability of collision Miss distance Type
COSMOS 792 LEO 2024-12-31 23:47:10 0.0001653533 197.0 (m) PAYLOAD

Associated space launch

Military communications satellites

COSMOS 2192 was lifted into orbit during the mission ‘Kosmos-3M | Strela-1M 361-368’, on board a Kosmos-3M space rocket.

The launch took place on June 3, 1992, 12:50 a.m. from 133/3 (133L).

For more information about the launch, click the button.

Launch to space Kosmos-3M | Strela-1M 361-368
Kosmos-3M | Strela-1M 361-368

Agency: N/A

Status: Launch Successful

Launch date: June 3, 1992, 12:50 a.m. UTC

Rocket: Kosmos-3M

Launch pad: 133/3 (133L)

Location: Plesetsk Cosmodrome, Russian Federation

...

Latest news about this satellite

There are no fresh news available about this satellite. Check back as we update our databases every day.


Newsletter sign-up

Weekly statistics, charts and insights to help you stay on top of the space industry.